Погода в Елабуге

Погода в Елабуге : погода сейчас, прогноз погоды и архив. Всё, что Вы хотите узнать о погоде в Елабуге!

Поиск расширенной информации на нашем сайте:

Другие новости

Новости СМИ2

Главная страница сайта

Новости сайта

03.07.2017

Напоминаем, что на нашем специализированном сайте Метеоцентр.Азия вы можете получить высокодетализированные автоматические прогнозы погоды по пунктам России, СНГ и мира в авиационном формате (включающие направление и скорость ветра, видимость, явления погоды, количество и форму облачности, нижнюю и верхнюю границу облачности).


Погода в Елабуге - сегодня

Время (UTC), дата Ветер
(°,м/с) 
Видим.   Явления Облачность Т
(°С)
Тd
(°С)
f(%) Тe
(°С)
Pmin
(гПа)
dP
(гПа)
Po
(мм)
O2
(г/м3)
Тmin Tmax R s Состояние
почвы
18 20.09.18 300 (СЗ) 10 км    8/0 средняя 
[Ac As]
+8.3 +3.6 72 +8  1010.5  0.7  750  293           
21 20.09.18 310 (СЗ) 10 км    8/0 средняя 
[Ac As]
+8.4 +4.1 74 +8  1010.5  750  292           
00 21.09.18 330 (СЗ) 10 км    3/0 средняя 
[Ac trans]
+6 +2.9 80 +7  1011.7  1.1  750  295           
06 21.09.18 340 (С) 10 км    ясно 
+12.9 +3 51 +13  1014.4  1.2  753  289           
09 21.09.18 320 (СЗ) 10 км    ясно 
+15.3 +2.2 41 +16  1014.6  0.3  753  287           
12 21.09.18 310 (СЗ) 10 км    ясно 
+16.8 +0.3 33 +17  1015  0.5  753  286           
15 21.09.18 320 (СЗ) 10 км    ясно 
+11.8 +3.3 56 +13  1016.5  1.3  754  291    +17       
18 21.09.18 300 (СЗ) 10 км    3/0 верхняя 
[Ci fib]
+9.7 +4.1 68 +10  1017.5  0.9  755  293           
21 21.09.18 тихо ()   20000 м    3/0 верхняя 
[Ci fib]
+6.6 +4.6 87 +7  1018.6  756  297           
00 22.09.18 тихо ()   10 км    3/0 верхняя 
[Ci fib]
+9.2 +7 86 +9  1019  0.5  756  294           
06 22.09.18 230 (ЮЗ) 10 км    8/4 600 м средняя 
[Sc|Ac As]
+16.2 +12.1 77 +21  1019.3  0.3  756  285           
09 22.09.18 250 (З) 10 км    3/0 средняя 
[Ac As]
+19.7 +13.3 67 +27  1018.7  -0.5  756  282           
12 22.09.18 280 (З) 10 км    4/3 600 м верхняя 
[Sc|Ci fib]
+20.8 +14 65 +28  1017.9  -0.7  756  280           
15 22.09.18 280 (З) 10 км    3/0 верхняя 
[Cs]
+18.2 +14 76 +26  1017.9  0.1  755  283    +21.7       
18 22.09.18 300 (СЗ) 10 км    3/0 верхняя 
[Cs]
+16.1 +13.7 86 +23  1018.4  0.4  756  285           
21 22.09.18 тихо ()   4000 м  дымка  8/0 средняя 
[Ac As]
+13.4 +12.1 92 +17  1018.6  0.1  756  288           
00 23.09.18 250 (З) 4000 м  дымка  6/0 верхняя 
[Cs]
+12.1 +10.9 92 +15  1019  0.3  756  290           
03 23.09.18 тихо ()   4000 м  дымка{туман}  8/0 верхняя 
[Cs]
+10.2 +9.3 94 +10  1018.9  -0.2  756  292  +10.2        сухая 
06 23.09.18 140 (ЮВ) 4000 м  дымка{туман}  3/0 верхняя 
[Cs]
+17.6 +13.2 75 +25  1018.2  -0.4  756  283           
09 23.09.18 180 (Ю) 10 км    3/3 600 м 
[Cu med, cong]
+24.5 +12.3 47 +29  1016.9  -1  755  277           
12 23.09.18 230 (ЮЗ) 10 км    4/4 600 м 
[Cu med, cong]
+24.8 +10.6 41 +27  1015.4  -1.5  754  277           
15 23.09.18 тихо ()   10 км    3/0 верхняя 
[Cs]
+17.6 +12.4 72 +22  1014.6  -1  753  283    +25.3       
18 23.09.18 170 (Ю) 10 км    ясно 
+13.9 +11.1 83 +18  1014.2  -0.6  753  286           
21 23.09.18 160 (Ю) 10 км    ясно 
+13.3 +10 80 +16  1013.4  -0.8  752  287           
00 24.09.18 140 (ЮВ) 10 км    ясно 
+11.6 +9 84 +13  1012.7  -0.7  751  289           
Время (UTC), дата Ветер
(°,м/с) 
Видим.   Явления Облачность Т
(°С)
Тd
(°С)
f(%) Тe
(°С)
Pmin
(гПа)
dP
(гПа)
Po
(мм)
O2
(г/м3)
Тmin Tmax R s Состояние
почвы

Для получения пояснительной информации подведите курсор к названию столбца.

ПОГОДА в Елабуге - архив

Всё, что Вы хотите узнать о погоде в Елабуге - удобно и подробно!

Выберите нужную дату (начиная с 1 января 2015* года) и нажмите кнопку "Найти".
Будут отображены архивные сводки погоды по пункту Елабуга, начиная с указанной даты.


Отображать данные в формате CSV (для использования в таблицах Excel)


Внимание! Наш архив погоды предназначен исключительно для личного некоммерческого использования в познавательных целях. Если Вам необходимы официальные справки о состоянии погоды (для производственных, юридических, коммерческих и т.п. целей), обращайтесь в органы Росгидромета.

*Примечание: данная дата относится к архиву по метеостанциям СССР (Россия, СНГ, Балтия).
Архив по метеостанциям Зарубежной Европы и Азии (кроме Китая) хранится 10 дней, по другим регионам земного шара (Китай, Африка, Америка, Австралия, Океания) - 1 день.

Елабуга - район местоположения метеостанции


Название, широта, долгота, высота метеостанции:
Елабуга 55.7°ш. 52.1°д. 90 м над ур. моря [Российская Федерация]

Дополнительная информация

В oтличие oт бoльшинства пoгoдных сайтoв мы публикуем пoдрoбную метеoинфoрмацию в детальнoм прoфессиoнальнoм фoрмате.

Характеристики температуры и влажнoсти вoздуха измеряются на высoте 2 м в тени вдали oт зданий и деревьев.
Скoрoсть ветра измеряется на высoте 10 м (на урoвне рoста челoвека скoрoсть ветра ниже в 1.5-2 раза). Если метеoстанция нахoдится в гoрoде или в лесу, тo скoрoсть ветра занижена на 2-4 м/с пo сравнению с oткрытым местoм. Скoрoсть ветра над акватoриями крупных рек и oзёр, а также на вершинах хoлмoв на 2-5 м/с выше, чем в oбычных услoвиях.
Атмoсфернoе давление в разных тoчках местнoсти мoжет значительнo oтличаться oт давления на метеoстанции, в зависимoсти oт услoвий рельефа (при пoдъёме на 10 м давление пoнижается примернo на 1 мм рт.ст.).